User: anonymous   Login
Location: Muenchen
(48.1800°N, 11.5800°E)
Time: 13:33:35
(UTC+02:00)
Language:

Iridium 37 - Orbit

View from above orbital plane
View from above orbital plane
View from above satellite
View from above satellite

Ground track
Ground track

The orbit data is extracted from the following two-line orbital elements,

1 24968U 97056D   16179.33687180  .00000196  00000-0  63087-4 0  9990
2 24968  86.3980 107.2384 0002245  85.7053 274.4399 14.34217937981671
Epoch (UTC): 27 June 2016 08:05:05
Eccentricity: 0.0002245
inclination: 86.3980°
perigee height: 776 km
apogee height: 779 km
right ascension of ascending node: 107.2384°
argument of perigee: 85.7053°
revolutions per day: 14.34217937
mean anomaly at epoch: 274.4399°
orbit number at epoch: 98167

The dashed part of the orbit path shows where the satellite is in the earth's shadow,  

DLR